Location: Sungai Bunut
(2.6333°N, 113.7333°E)
Time: 10:49:32
(UTC+00:00)

Transit 2A - Pass Details

Date: 03 December 2023
Orbit: 599 x 953 km, 66.7° (Epoch: 01 March)

Event Time Altitude Azimuth Distance (km) Brightness Sun altitude
Rises 05:45:28 0° 170° (S) 3,548 9.7 56.8°
Reaches altitude 10° 05:48:57 10° 152° (SSE) 2,552 9.0 56.2°
Maximum altitude 05:52:44 18° 112° (ESE) 1,999 8.2 55.6°
Drops below altitude 10° 05:56:20 10° 71° (ENE) 2,403 8.4 55.0°
Sets 05:59:27 0° 52° (NE) 3,259 8.9 54.4°
